contact: severine.martini@mio.osupytheas.fr, dominique.lefevre@mio.osupytheas.fr
Project:EMSO Ligure-ouest http://www.emso-fr.org/EMSO-France
Sensor Optode, line 4330 Serial 272 
DOI : "https://doi.org/10.17882/97948" 
Title:EMSO Ligure Ouest : Data BathyDock capteur Optode - deploiement "2023-04-28"
Datetime,Profondeur,Latitude,Longitude,optode_type,serial,O2_concentration,O2_saturation,Temperature,Calibrated_Phase,Temp_Compensated_Phase,phase_blue_light,phase_red_light,Amplitude_blue_light,Amplitude_red_light,thermistor_bridge
time,m,degree_north,degree_east,1,1,umol.l-1,%,degree_C,degree,degree,degree,degree,mV,mV,mV
2024-01-27T00:00:07,2420,42.8014,5.9826,4330,272,186.256,57.037,13.303,36.056,36.636,41.223,4.587,296.1,545.6,291.4
2024-01-27T00:03:07,2420,42.8014,5.9826,4330,272,186.494,57.109,13.303,36.041,36.621,41.210,4.589,296.2,545.4,291.4
2024-01-27T00:06:07,2420,42.8014,5.9826,4330,272,186.429,57.089,13.303,36.046,36.626,41.214,4.589,296.2,545.5,291.5
2024-01-27T00:09:07,2420,42.8014,5.9826,4330,272,186.581,57.135,13.303,36.035,36.616,41.210,4.594,296.2,545.6,291.5
2024-01-27T00:12:07,2420,42.8014,5.9826,4330,272,186.563,57.130,13.303,36.036,36.616,41.206,4.590,296.2,545.6,291.5
2024-01-27T00:15:08,2420,42.8014,5.9826,4330,272,186.435,57.090,13.302,36.045,36.625,41.210,4.585,296.2,545.6,291.5
2024-01-27T00:18:08,2420,42.8014,5.9826,4330,272,186.422,57.086,13.302,36.046,36.626,41.216,4.590,296.1,545.6,291.5
2024-01-27T00:21:08,2420,42.8014,5.9826,4330,272,186.529,57.118,13.302,36.040,36.620,41.210,4.590,296.2,545.6,291.5
2024-01-27T00:24:08,2420,42.8014,5.9826,4330,272,186.417,57.085,13.303,36.046,36.626,41.221,4.595,296.2,545.7,291.5
2024-01-27T00:27:08,2420,42.8014,5.9826,4330,272,186.325,57.056,13.302,36.053,36.633,41.221,4.589,296.2,545.6,291.5
2024-01-27T00:30:07,2420,42.8014,5.9826,4330,272,186.560,57.129,13.302,36.037,36.617,41.207,4.590,296.2,545.5,291.5
2024-01-27T00:33:07,2420,42.8014,5.9826,4330,272,186.642,57.154,13.303,36.031,36.611,41.202,4.591,296.2,545.6,291.5
2024-01-27T00:36:07,2420,42.8014,5.9826,4330,272,186.317,57.053,13.302,36.053,36.633,41.225,4.592,296.2,545.6,291.5
2024-01-27T00:39:08,2420,42.8014,5.9826,4330,272,186.378,57.073,13.303,36.049,36.629,41.221,4.592,296.2,545.6,291.5
2024-01-27T00:42:08,2420,42.8014,5.9826,4330,272,186.561,57.128,13.302,36.037,36.617,41.216,4.599,296.2,545.6,291.5
2024-01-27T00:45:08,2420,42.8014,5.9826,4330,272,186.249,57.032,13.301,36.058,36.638,41.227,4.589,296.1,545.6,291.5
2024-01-27T00:48:07,2420,42.8014,5.9826,4330,272,186.526,57.117,13.302,36.040,36.620,41.209,4.590,296.1,545.5,291.5
2024-01-27T00:51:07,2420,42.8014,5.9826,4330,272,186.471,57.101,13.302,36.042,36.622,41.217,4.595,296.2,545.6,291.5
2024-01-27T00:54:07,2420,42.8014,5.9826,4330,272,186.200,57.020,13.304,36.060,36.640,41.227,4.587,296.1,545.6,291.4
2024-01-27T00:57:08,2420,42.8014,5.9826,4330,272,186.496,57.109,13.303,36.041,36.621,41.218,4.597,296.2,545.6,291.5
2024-01-27T01:00:08,2420,42.8014,5.9826,4330,272,186.464,57.099,13.303,36.043,36.623,41.216,4.593,296.3,545.7,291.5
2024-01-27T01:03:07,2420,42.8014,5.9826,4330,272,186.482,57.104,13.302,36.043,36.623,41.212,4.590,296.2,545.6,291.5
2024-01-27T01:06:07,2420,42.8014,5.9826,4330,272,186.590,57.138,13.302,36.035,36.615,41.206,4.590,296.1,545.5,291.5
2024-01-27T01:09:07,2420,42.8014,5.9826,4330,272,186.506,57.112,13.302,36.041,36.621,41.215,4.594,296.1,545.7,291.5
2024-01-27T01:12:07,2420,42.8014,5.9826,4330,272,186.303,57.049,13.302,36.054,36.634,41.221,4.588,296.1,545.7,291.5
2024-01-27T01:15:07,2420,42.8014,5.9826,4330,272,186.578,57.134,13.303,36.036,36.616,41.207,4.590,296.1,545.6,291.5
2024-01-27T01:18:08,2420,42.8014,5.9826,4330,272,186.405,57.084,13.305,36.046,36.626,41.214,4.589,296.2,545.6,291.4
2024-01-27T01:21:08,2420,42.8014,5.9826,4330,272,186.372,57.070,13.302,36.050,36.630,41.214,4.584,296.2,545.6,291.5
2024-01-27T01:24:07,2420,42.8014,5.9826,4330,272,186.668,57.165,13.305,36.029,36.609,41.203,4.594,296.1,545.6,291.4
2024-01-27T01:27:07,2420,42.8014,5.9826,4330,272,186.466,57.099,13.302,36.043,36.623,41.215,4.592,296.1,545.6,291.5
2024-01-27T01:30:07,2420,42.8014,5.9826,4330,272,186.421,57.087,13.303,36.045,36.625,41.212,4.587,296.1,545.6,291.4
2024-01-27T01:33:07,2420,42.8014,5.9826,4330,272,186.498,57.110,13.303,36.041,36.621,41.212,4.591,296.2,545.5,291.4
2024-01-27T01:36:07,2420,42.8014,5.9826,4330,272,186.374,57.071,13.302,36.049,36.629,41.221,4.591,296.1,545.6,291.5
2024-01-27T01:39:07,2420,42.8014,5.9826,4330,272,186.370,57.070,13.302,36.049,36.629,41.217,4.588,296.1,545.7,291.5
2024-01-27T01:42:08,2420,42.8014,5.9826,4330,272,186.619,57.146,13.302,36.033,36.614,41.201,4.587,296.1,545.7,291.5
2024-01-27T01:45:08,2420,42.8014,5.9826,4330,272,186.568,57.133,13.304,36.036,36.616,41.205,4.589,296.1,545.6,291.4
2024-01-27T01:48:08,2420,42.8014,5.9826,4330,272,186.331,57.058,13.302,36.052,36.632,41.220,4.588,296.2,545.5,291.5
2024-01-27T01:51:07,2420,42.8014,5.9826,4330,272,186.529,57.120,13.303,36.039,36.619,41.209,4.590,296.2,545.6,291.4
2024-01-27T01:54:07,2420,42.8014,5.9826,4330,272,186.545,57.125,13.303,36.038,36.618,41.205,4.588,296.2,545.7,291.4
2024-01-27T01:57:07,2420,42.8014,5.9826,4330,272,186.400,57.082,13.304,36.047,36.627,41.212,4.585,296.1,545.7,291.4
2024-01-27T02:00:08,2420,42.8014,5.9826,4330,272,186.220,57.026,13.304,36.059,36.638,41.232,4.593,296.2,545.6,291.4
2024-01-27T02:03:07,2420,42.8014,5.9826,4330,272,186.351,57.065,13.303,36.050,36.630,41.216,4.586,296.2,545.7,291.5
2024-01-27T02:06:07,2420,42.8014,5.9826,4330,272,186.341,57.063,13.303,36.051,36.631,41.215,4.584,296.1,545.7,291.4
2024-01-27T02:09:07,2420,42.8014,5.9826,4330,272,186.643,57.156,13.304,36.031,36.611,41.201,4.590,296.2,545.6,291.4
2024-01-27T02:12:07,2420,42.8014,5.9826,4330,272,186.461,57.100,13.304,36.042,36.622,41.206,4.584,296.2,545.6,291.4
2024-01-27T02:15:07,2420,42.8014,5.9826,4330,272,186.421,57.087,13.303,36.046,36.626,41.216,4.590,296.2,545.7,291.5
2024-01-27T02:18:08,2420,42.8014,5.9826,4330,272,186.361,57.067,13.302,36.050,36.630,41.220,4.590,296.2,545.7,291.5
2024-01-27T02:21:08,2420,42.8014,5.9826,4330,272,186.474,57.103,13.303,36.043,36.623,41.213,4.590,296.1,545.6,291.5
2024-01-27T02:24:08,2420,42.8014,5.9826,4330,272,186.682,57.166,13.303,36.029,36.609,41.201,4.592,296.1,545.6,291.5
2024-01-27T02:27:08,2420,42.8014,5.9826,4330,272,186.601,57.143,13.304,36.033,36.613,41.203,4.590,296.2,545.6,291.4
2024-01-27T02:30:07,2420,42.8014,5.9826,4330,272,186.545,57.124,13.303,36.038,36.618,41.214,4.596,296.1,545.5,291.5
2024-01-27T02:33:07,2420,42.8014,5.9826,4330,272,186.580,57.135,13.303,36.035,36.615,41.206,4.590,296.1,545.6,291.5
2024-01-27T02:36:07,2420,42.8014,5.9826,4330,272,186.555,57.127,13.303,36.037,36.617,41.213,4.596,296.1,545.6,291.5
2024-01-27T02:39:08,2420,42.8014,5.9826,4330,272,186.482,57.104,13.302,36.042,36.622,41.213,4.591,296.2,545.6,291.5
2024-01-27T02:42:08,2420,42.8014,5.9826,4330,272,186.205,57.020,13.303,36.060,36.640,41.224,4.583,296.1,545.6,291.5
2024-01-27T02:45:08,2420,42.8014,5.9826,4330,272,186.235,57.030,13.303,36.058,36.638,41.222,4.585,296.1,545.6,291.4
2024-01-27T02:48:07,2420,42.8014,5.9826,4330,272,186.413,57.086,13.304,36.045,36.625,41.218,4.593,296.2,545.5,291.4
2024-01-27T02:51:07,2420,42.8014,5.9826,4330,272,186.817,57.208,13.303,36.020,36.600,41.194,4.594,296.2,545.6,291.4
2024-01-27T02:54:07,2420,42.8014,5.9826,4330,272,186.427,57.088,13.303,36.046,36.626,41.212,4.586,296.2,545.6,291.5
2024-01-27T02:57:08,2420,42.8014,5.9826,4330,272,186.365,57.072,13.305,36.048,36.628,41.216,4.587,296.1,545.6,291.4
2024-01-27T03:00:08,2420,42.8014,5.9826,4330,272,186.504,57.113,13.304,36.040,36.620,41.210,4.589,296.1,545.6,291.4
2024-01-27T03:03:07,2420,42.8014,5.9826,4330,272,186.529,57.119,13.302,36.039,36.619,41.212,4.593,296.2,545.6,291.5
2024-01-27T03:06:07,2420,42.8014,5.9826,4330,272,186.424,57.088,13.303,36.045,36.625,41.218,4.593,296.1,545.6,291.5
2024-01-27T03:09:08,2420,42.8014,5.9826,4330,272,186.537,57.122,13.303,36.038,36.618,41.208,4.590,296.1,545.6,291.5
2024-01-27T03:12:08,2420,42.8014,5.9826,4330,272,186.456,57.098,13.303,36.043,36.623,41.214,4.590,296.2,545.6,291.4
2024-01-27T03:15:07,2420,42.8014,5.9826,4330,272,186.551,57.127,13.304,36.037,36.617,41.208,4.591,296.1,545.5,291.4
2024-01-27T03:18:07,2420,42.8014,5.9826,4330,272,186.772,57.195,13.304,36.022,36.602,41.200,4.597,296.2,545.6,291.4
2024-01-27T03:21:07,2420,42.8014,5.9826,4330,272,186.397,57.081,13.304,36.047,36.627,41.218,4.592,296.2,545.6,291.4
2024-01-27T03:24:07,2420,42.8014,5.9826,4330,272,186.486,57.107,13.304,36.041,36.621,41.210,4.589,296.2,545.6,291.4
2024-01-27T03:27:07,2420,42.8014,5.9826,4330,272,186.260,57.038,13.303,36.056,36.636,41.228,4.591,296.2,545.5,291.4
2024-01-27T03:30:07,2420,42.8014,5.9826,4330,272,186.126,56.998,13.304,36.065,36.644,41.229,4.584,296.2,545.7,291.4
2024-01-27T03:33:07,2420,42.8014,5.9826,4330,272,186.200,57.019,13.303,36.060,36.640,41.230,4.590,296.1,545.6,291.5
2024-01-27T03:36:07,2420,42.8014,5.9826,4330,272,186.508,57.113,13.303,36.040,36.620,41.204,4.584,296.2,545.6,291.5
2024-01-27T03:39:07,2420,42.8014,5.9826,4330,272,186.377,57.074,13.304,36.048,36.628,41.217,4.590,296.1,545.6,291.4
2024-01-27T03:42:07,2420,42.8014,5.9826,4330,272,186.515,57.116,13.303,36.040,36.620,41.208,4.588,296.1,545.6,291.4
2024-01-27T03:45:08,2420,42.8014,5.9826,4330,272,186.303,57.050,13.303,36.054,36.634,41.222,4.588,296.1,545.6,291.5
2024-01-27T03:48:08,2420,42.8014,5.9826,4330,272,186.432,57.090,13.303,36.045,36.625,41.213,4.588,296.2,545.5,291.5
2024-01-27T03:51:08,2420,42.8014,5.9826,4330,272,186.415,57.086,13.304,36.046,36.626,41.215,4.589,296.2,545.5,291.4
2024-01-27T03:54:08,2420,42.8014,5.9826,4330,272,186.421,57.087,13.303,36.046,36.626,41.210,4.585,296.2,545.6,291.4
2024-01-27T03:57:07,2420,42.8014,5.9826,4330,272,186.216,57.024,13.303,36.059,36.639,41.226,4.587,296.2,545.5,291.4
2024-01-27T04:00:07,2420,42.8014,5.9826,4330,272,186.450,57.096,13.303,36.044,36.624,41.209,4.586,296.1,545.5,291.4
2024-01-27T04:03:07,2420,42.8014,5.9826,4330,272,186.396,57.081,13.305,36.046,36.626,41.218,4.592,296.0,545.6,291.4
2024-01-27T04:06:07,2420,42.8014,5.9826,4330,272,186.401,57.081,13.303,36.047,36.627,41.219,4.592,296.1,545.6,291.5
2024-01-27T04:09:08,2420,42.8014,5.9826,4330,272,186.329,57.059,13.303,36.051,36.631,41.218,4.587,296.2,545.5,291.4
2024-01-27T04:12:08,2420,42.8014,5.9826,4330,272,186.376,57.074,13.304,36.049,36.628,41.213,4.585,296.2,545.6,291.4
2024-01-27T04:15:08,2420,42.8014,5.9826,4330,272,186.298,57.050,13.304,36.054,36.633,41.220,4.587,296.1,545.6,291.4
2024-01-27T04:18:08,2420,42.8014,5.9826,4330,272,186.652,57.158,13.304,36.030,36.610,41.199,4.588,296.2,545.6,291.4
2024-01-27T04:21:08,2420,42.8014,5.9826,4330,272,186.570,57.133,13.303,36.036,36.616,41.202,4.587,296.2,545.6,291.4
2024-01-27T04:24:07,2420,42.8014,5.9826,4330,272,186.324,57.057,13.303,36.053,36.633,41.226,4.593,296.1,545.6,291.5
2024-01-27T04:27:07,2420,42.8014,5.9826,4330,272,186.570,57.133,13.303,36.036,36.616,41.207,4.591,296.1,545.6,291.4
2024-01-27T04:30:07,2420,42.8014,5.9826,4330,272,186.562,57.130,13.304,36.036,36.616,41.212,4.596,296.1,545.6,291.4
2024-01-27T04:33:07,2420,42.8014,5.9826,4330,272,186.452,57.097,13.303,36.044,36.624,41.212,4.589,296.2,545.6,291.4
2024-01-27T04:36:07,2420,42.8014,5.9826,4330,272,186.183,57.012,13.302,36.062,36.642,41.230,4.589,296.2,546.7,291.5
2024-01-27T04:39:07,2420,42.8014,5.9826,4330,272,186.435,57.089,13.302,36.045,36.625,41.218,4.593,296.3,546.8,291.5
2024-01-27T04:42:08,2420,42.8014,5.9826,4330,272,186.354,57.065,13.302,36.051,36.631,41.219,4.588,296.2,546.8,291.5
2024-01-27T04:45:08,2420,42.8014,5.9826,4330,272,186.516,57.117,13.304,36.040,36.620,41.210,4.591,296.2,546.8,291.4
2024-01-27T04:48:08,2420,42.8014,5.9826,4330,272,186.502,57.111,13.302,36.041,36.621,41.207,4.586,296.2,546.8,291.5
2024-01-27T04:51:08,2420,42.8014,5.9826,4330,272,186.548,57.124,13.302,36.038,36.618,41.210,4.592,296.2,546.8,291.5
2024-01-27T04:54:08,2420,42.8014,5.9826,4330,272,186.485,57.105,13.302,36.042,36.622,41.212,4.590,296.2,546.8,291.5
2024-01-27T04:57:08,2420,42.8014,5.9826,4330,272,186.456,57.096,13.302,36.044,36.624,41.208,4.585,296.3,546.8,291.5
2024-01-27T05:00:07,2420,42.8014,5.9826,4330,272,186.702,57.175,13.305,36.027,36.607,41.196,4.589,296.3,546.8,291.4
2024-01-27T05:03:07,2420,42.8014,5.9826,4330,272,186.514,57.114,13.302,36.040,36.620,41.209,4.589,296.2,546.8,291.5
2024-01-27T05:06:07,2420,42.8014,5.9826,4330,272,186.264,57.037,13.302,36.056,36.636,41.225,4.588,296.2,546.9,291.5
2024-01-27T05:09:07,2420,42.8014,5.9826,4330,272,186.403,57.079,13.301,36.048,36.628,41.215,4.587,296.2,546.8,291.5
2024-01-27T05:12:07,2420,42.8014,5.9826,4330,272,186.327,57.057,13.302,36.053,36.633,41.215,4.582,296.3,546.8,291.5
2024-01-27T05:15:08,2420,42.8014,5.9826,4330,272,186.585,57.137,13.303,36.035,36.615,41.200,4.585,296.2,546.8,291.4
2024-01-27T05:18:08,2420,42.8014,5.9826,4330,272,186.595,57.139,13.302,36.035,36.615,41.204,4.589,296.2,546.8,291.5
2024-01-27T05:21:08,2420,42.8014,5.9826,4330,272,186.393,57.076,13.301,36.048,36.628,41.217,4.589,296.2,546.8,291.5
2024-01-27T05:24:08,2420,42.8014,5.9826,4330,272,186.416,57.083,13.301,36.047,36.627,41.212,4.585,296.2,546.8,291.5
2024-01-27T05:27:07,2420,42.8014,5.9826,4330,272,186.451,57.094,13.302,36.044,36.624,41.214,4.590,296.2,546.8,291.5
2024-01-27T05:30:07,2420,42.8014,5.9826,4330,272,186.428,57.088,13.303,36.045,36.625,41.217,4.592,296.2,546.9,291.5
2024-01-27T05:33:07,2420,42.8014,5.9826,4330,272,186.493,57.108,13.302,36.041,36.621,41.206,4.585,296.2,546.8,291.5
2024-01-27T05:36:07,2420,42.8014,5.9826,4330,272,186.348,57.064,13.303,36.051,36.631,41.223,4.592,296.2,546.8,291.5
2024-01-27T05:39:07,2420,42.8014,5.9826,4330,272,186.476,57.102,13.301,36.042,36.622,41.208,4.586,296.2,546.8,291.5
2024-01-27T05:42:08,2420,42.8014,5.9826,4330,272,186.556,57.130,13.304,36.036,36.616,41.211,4.595,296.1,546.8,291.4
2024-01-27T05:45:08,2420,42.8014,5.9826,4330,272,186.448,57.094,13.302,36.044,36.624,41.217,4.593,296.2,546.8,291.5
2024-01-27T05:48:08,2420,42.8014,5.9826,4330,272,186.501,57.111,13.303,36.040,36.620,41.209,4.588,296.2,546.9,291.5
2024-01-27T05:51:08,2420,42.8014,5.9826,4330,272,186.352,57.064,13.302,36.051,36.631,41.223,4.592,296.2,546.8,291.5
2024-01-27T05:54:07,2420,42.8014,5.9826,4330,272,186.327,57.058,13.303,36.052,36.632,41.216,4.585,296.2,546.7,291.5
2024-01-27T05:57:07,2420,42.8014,5.9826,4330,272,186.122,56.997,13.304,36.065,36.644,41.235,4.591,296.1,546.8,291.4
2024-01-27T06:00:07,2420,42.8014,5.9826,4330,272,186.585,57.136,13.303,36.036,36.616,41.209,4.594,296.2,546.8,291.5
2024-01-27T06:03:07,2420,42.8014,5.9826,4330,272,186.638,57.152,13.302,36.032,36.612,41.207,4.594,296.1,546.8,291.5
2024-01-27T06:06:07,2420,42.8014,5.9826,4330,272,186.353,57.066,13.303,36.050,36.630,41.216,4.586,296.2,546.8,291.5
2024-01-27T06:09:07,2420,42.8014,5.9826,4330,272,186.247,57.035,13.304,36.056,36.636,41.228,4.592,296.2,546.8,291.4
2024-01-27T06:12:08,2420,42.8014,5.9826,4330,272,186.716,57.176,13.302,36.027,36.607,41.204,4.597,296.2,546.8,291.5
2024-01-27T06:15:08,2420,42.8014,5.9826,4330,272,186.241,57.030,13.302,36.058,36.638,41.226,4.588,296.1,546.8,291.5
2024-01-27T06:18:07,2420,42.8014,5.9826,4330,272,186.370,57.072,13.303,36.049,36.629,41.218,4.589,296.1,546.8,291.4
2024-01-27T06:21:07,2420,42.8014,5.9826,4330,272,186.591,57.139,13.303,36.035,36.615,41.205,4.590,296.2,546.8,291.5
2024-01-27T06:24:07,2420,42.8014,5.9826,4330,272,186.502,57.112,13.303,36.040,36.620,41.215,4.594,296.3,546.8,291.4
2024-01-27T06:27:07,2420,42.8014,5.9826,4330,272,186.474,57.102,13.303,36.043,36.623,41.212,4.589,296.1,546.8,291.5
2024-01-27T06:30:08,2420,42.8014,5.9826,4330,272,186.651,57.157,13.303,36.031,36.611,41.204,4.593,296.1,546.9,291.5
2024-01-27T06:33:07,2420,42.8014,5.9826,4330,272,186.341,57.062,13.303,36.051,36.631,41.218,4.587,296.2,546.8,291.5
2024-01-27T06:36:07,2420,42.8014,5.9826,4330,272,186.494,57.109,13.303,36.041,36.621,41.211,4.590,296.2,546.8,291.5
2024-01-27T06:39:07,2420,42.8014,5.9826,4330,272,186.293,57.049,13.304,36.053,36.633,41.220,4.587,296.2,546.9,291.4
2024-01-27T06:42:07,2420,42.8014,5.9826,4330,272,186.309,57.052,13.303,36.053,36.633,41.224,4.591,296.2,546.7,291.5
2024-01-27T06:45:07,2420,42.8014,5.9826,4330,272,186.244,57.033,13.304,36.057,36.637,41.223,4.586,296.2,546.8,291.4
2024-01-27T06:48:08,2420,42.8014,5.9826,4330,272,186.363,57.070,13.304,36.049,36.629,41.216,4.588,296.1,546.8,291.4
2024-01-27T06:51:08,2420,42.8014,5.9826,4330,272,186.514,57.118,13.305,36.039,36.619,41.207,4.589,296.1,546.8,291.4
2024-01-27T06:54:08,2420,42.8014,5.9826,4330,272,186.327,57.061,13.305,36.051,36.630,41.224,4.594,296.2,546.8,291.4
2024-01-27T06:57:07,2420,42.8014,5.9826,4330,272,186.247,57.034,13.303,36.057,36.636,41.226,4.590,296.2,546.8,291.5
2024-01-27T07:00:07,2420,42.8014,5.9826,4330,272,186.392,57.079,13.304,36.047,36.627,41.216,4.589,296.2,546.8,291.4
2024-01-27T07:03:07,2420,42.8014,5.9826,4330,272,186.437,57.094,13.305,36.044,36.624,41.215,4.591,296.2,546.8,291.4
2024-01-27T07:06:07,2420,42.8014,5.9826,4330,272,186.281,57.045,13.304,36.054,36.634,41.223,4.589,296.2,546.8,291.4
2024-01-27T07:09:08,2420,42.8014,5.9826,4330,272,186.324,57.058,13.304,36.052,36.632,41.222,4.590,296.2,546.8,291.4
2024-01-27T07:12:08,2420,42.8014,5.9826,4330,272,186.437,57.093,13.304,36.044,36.624,41.215,4.591,296.2,546.7,291.4
2024-01-27T07:15:08,2420,42.8014,5.9826,4330,272,186.325,57.059,13.305,36.051,36.631,41.222,4.590,296.2,546.8,291.4
2024-01-27T07:18:07,2420,42.8014,5.9826,4330,272,186.548,57.127,13.304,36.037,36.617,41.208,4.590,296.2,546.7,291.4
2024-01-27T07:21:07,2420,42.8014,5.9826,4330,272,186.538,57.123,13.304,36.038,36.618,41.210,4.592,296.2,546.8,291.4
2024-01-27T07:24:07,2420,42.8014,5.9826,4330,272,186.186,57.017,13.305,36.060,36.640,41.227,4.587,296.1,546.8,291.4
2024-01-27T07:27:08,2420,42.8014,5.9826,4330,272,186.572,57.134,13.304,36.036,36.616,41.203,4.587,296.2,546.9,291.4
2024-01-27T07:30:08,2420,42.8014,5.9826,4330,272,186.575,57.136,13.305,36.035,36.615,41.204,4.589,296.2,546.8,291.4
2024-01-27T07:33:07,2420,42.8014,5.9826,4330,272,186.615,57.146,13.303,36.033,36.613,41.200,4.587,296.2,546.7,291.5
2024-01-27T07:36:07,2420,42.8014,5.9826,4330,272,186.374,57.074,13.304,36.048,36.628,41.218,4.590,296.2,546.8,291.4
2024-01-27T07:39:07,2420,42.8014,5.9826,4330,272,186.608,57.147,13.305,36.032,36.612,41.207,4.594,296.2,546.8,291.4
2024-01-27T07:42:08,2420,42.8014,5.9826,4330,272,186.367,57.071,13.304,36.048,36.628,41.218,4.590,296.1,546.7,291.4
2024-01-27T07:45:08,2420,42.8014,5.9826,4330,272,186.446,57.096,13.305,36.044,36.624,41.216,4.592,296.1,546.8,291.4
2024-01-27T07:48:08,2420,42.8014,5.9826,4330,272,186.397,57.082,13.305,36.047,36.627,41.214,4.588,296.1,546.7,291.4
2024-01-27T07:51:07,2420,42.8014,5.9826,4330,272,186.338,57.066,13.306,36.049,36.629,41.218,4.589,296.2,546.8,291.3
2024-01-27T07:54:07,2420,42.8014,5.9826,4330,272,186.569,57.134,13.305,36.035,36.615,41.206,4.590,296.2,546.8,291.4
2024-01-27T07:57:07,2420,42.8014,5.9826,4330,272,186.568,57.134,13.305,36.035,36.615,41.212,4.597,296.2,546.7,291.4
2024-01-27T08:00:08,2420,42.8014,5.9826,4330,272,186.529,57.121,13.304,36.038,36.618,41.215,4.596,296.1,546.8,291.4
2024-01-27T08:03:07,2420,42.8014,5.9826,4330,272,186.368,57.073,13.305,36.049,36.628,41.219,4.590,296.2,546.8,291.4
2024-01-27T08:06:07,2420,42.8014,5.9826,4330,272,186.342,57.065,13.305,36.050,36.629,41.221,4.591,296.2,546.7,291.4
2024-01-27T08:09:07,2420,42.8014,5.9826,4330,272,186.500,57.112,13.304,36.040,36.620,41.212,4.592,296.2,546.7,291.4
2024-01-27T08:12:07,2420,42.8014,5.9826,4330,272,186.436,57.094,13.305,36.044,36.624,41.211,4.587,296.1,546.8,291.4
2024-01-27T08:15:07,2420,42.8014,5.9826,4330,272,186.404,57.085,13.305,36.046,36.626,41.215,4.589,296.2,546.8,291.4
2024-01-27T08:18:07,2420,42.8014,5.9826,4330,272,186.562,57.135,13.307,36.035,36.615,41.210,4.595,296.2,546.8,291.3
2024-01-27T08:21:07,2420,42.8014,5.9826,4330,272,186.228,57.030,13.305,36.057,36.637,41.228,4.591,296.2,546.7,291.4
2024-01-27T08:24:07,2420,42.8014,5.9826,4330,272,186.495,57.113,13.306,36.039,36.619,41.206,4.587,296.1,546.8,291.4
2024-01-27T08:27:08,2420,42.8014,5.9826,4330,272,186.734,57.186,13.305,36.024,36.605,41.198,4.594,296.2,546.8,291.4
2024-01-27T08:30:08,2420,42.8014,5.9826,4330,272,186.302,57.056,13.308,36.051,36.631,41.222,4.591,296.2,546.8,291.3
2024-01-27T08:33:07,2420,42.8014,5.9826,4330,272,186.475,57.108,13.307,36.040,36.620,41.209,4.589,296.2,546.8,291.3
2024-01-27T08:36:07,2420,42.8014,5.9826,4330,272,186.071,56.985,13.307,36.067,36.646,41.232,4.586,296.2,546.8,291.3
2024-01-27T08:39:07,2420,42.8014,5.9826,4330,272,186.291,57.052,13.307,36.052,36.632,41.224,4.592,296.2,546.8,291.3
2024-01-27T08:42:07,2420,42.8014,5.9826,4330,272,186.581,57.142,13.308,36.033,36.613,41.200,4.587,296.2,546.8,291.3
2024-01-27T08:45:08,2420,42.8014,5.9826,4330,272,186.587,57.140,13.305,36.034,36.614,41.207,4.593,296.2,546.7,291.4
2024-01-27T08:48:08,2420,42.8014,5.9826,4330,272,186.312,57.057,13.306,36.051,36.631,41.221,4.589,296.2,546.7,291.4
2024-01-27T08:51:08,2420,42.8014,5.9826,4330,272,186.217,57.027,13.305,36.058,36.638,41.225,4.586,296.2,546.7,291.4
2024-01-27T08:54:08,2420,42.8014,5.9826,4330,272,186.382,57.082,13.308,36.046,36.626,41.216,4.590,296.1,546.7,291.3
2024-01-27T08:57:07,2420,42.8014,5.9826,4330,272,186.804,57.206,13.305,36.020,36.600,41.195,4.595,296.2,546.8,291.4
2024-01-27T09:00:07,2420,42.8014,5.9826,4330,272,186.156,57.011,13.307,36.061,36.641,41.230,4.589,296.1,546.8,291.3
2024-01-27T09:03:07,2420,42.8014,5.9826,4330,272,186.507,57.118,13.307,36.038,36.618,41.211,4.593,296.1,546.8,291.3
2024-01-27T09:06:07,2420,42.8014,5.9826,4330,272,186.464,57.103,13.306,36.042,36.622,41.215,4.593,296.1,546.8,291.4
2024-01-27T09:09:07,2420,42.8014,5.9826,4330,272,186.230,57.033,13.307,36.056,36.636,41.225,4.589,296.1,546.8,291.3
2024-01-27T09:12:08,2420,42.8014,5.9826,4330,272,186.392,57.084,13.308,36.045,36.625,41.217,4.592,296.2,546.7,291.3
2024-01-27T09:15:07,2420,42.8014,5.9826,4330,272,186.453,57.102,13.307,36.042,36.622,41.210,4.588,296.2,546.7,291.3
2024-01-27T09:18:08,2420,42.8014,5.9826,4330,272,186.467,57.104,13.306,36.041,36.621,41.215,4.594,296.1,546.7,291.4
2024-01-27T09:21:08,2420,42.8014,5.9826,4330,272,186.637,57.160,13.309,36.029,36.609,41.204,4.595,296.2,546.8,291.3
2024-01-27T09:24:08,2420,42.8014,5.9826,4330,272,186.410,57.089,13.307,36.044,36.624,41.215,4.591,296.1,546.8,291.3
2024-01-27T09:27:08,2420,42.8014,5.9826,4330,272,186.405,57.088,13.308,36.044,36.624,41.215,4.591,296.1,546.8,291.3
2024-01-27T09:30:07,2420,42.8014,5.9826,4330,272,186.283,57.054,13.310,36.051,36.631,41.223,4.592,296.2,546.7,291.2
2024-01-27T09:33:07,2420,42.8014,5.9826,4330,272,186.268,57.045,13.307,36.054,36.634,41.216,4.582,296.2,546.8,291.3
2024-01-27T09:36:07,2420,42.8014,5.9826,4330,272,186.366,57.074,13.306,36.048,36.628,41.217,4.589,296.1,546.8,291.3
2024-01-27T09:39:07,2420,42.8014,5.9826,4330,272,186.414,57.090,13.308,36.044,36.624,41.217,4.593,296.2,546.7,291.3
2024-01-27T09:42:07,2420,42.8014,5.9826,4330,272,186.326,57.063,13.307,36.050,36.629,41.221,4.591,296.2,546.8,291.3
2024-01-27T09:45:08,2420,42.8014,5.9826,4330,272,186.264,57.044,13.307,36.054,36.634,41.222,4.588,296.2,546.8,291.3
2024-01-27T09:48:08,2420,42.8014,5.9826,4330,272,186.313,57.061,13.309,36.050,36.630,41.222,4.591,296.1,546.8,291.3
2024-01-27T09:51:08,2420,42.8014,5.9826,4330,272,186.234,57.036,13.308,36.056,36.636,41.228,4.592,296.2,546.7,291.3
2024-01-27T09:54:07,2420,42.8014,5.9826,4330,272,186.090,56.991,13.307,36.065,36.645,41.239,4.594,296.2,546.7,291.3
2024-01-27T09:57:07,2420,42.8014,5.9826,4330,272,186.615,57.153,13.308,36.030,36.610,41.206,4.596,296.2,546.7,291.3
2024-01-27T10:00:08,2420,42.8014,5.9826,4330,272,186.255,57.042,13.308,36.054,36.634,41.223,4.589,296.2,546.8,291.3